Theta_e
313 315 319 322 323 324 325 325 323 324 326 321 322 320 324 330 331 331 332 334 335 339 338 339 343 343 345 345 345 345 344 344 344 344 343 342 340 339 340 339 338 337 336 335 334 333 330 327 325 327 329 328 328 329 329 329 329 328 329 330 330 331 332 331 332 332 332 332 332 332 332 333 333 334 333 330 329 329 332 333 333 332 332 333 334 334 334 334 333 334 333 333 333 333 333 330 325
314 318 321 323 324 325 325 326 324 322 322 319 321 323 327 331 330 332 335 335 336 336 337 338 342 342 343 343 343 344 344 343 343 343 342 341 340 339 339 338 338 336 336 336 336 333 330 329 330 331 331 331 330 331 331 331 331 332 331 330 330 330 331 330 331 331 331 332 331 332 332 333 333 333 334 333 331 331 331 331 332 331 331 331 332 333 333 333 333 333 333 333 333 332 333 332 329
317 321 323 324 324 324 325 326 324 318 318 315 319 328 329 330 332 334 335 335 335 334 334 337 341 342 342 342 343 343 343 342 343 342 340 341 341 339 338 337 337 336 336 337 337 335 331 331 332 332 333 332 332 333 333 333 333 333 333 333 333 333 332 332 331 331 331 330 330 330 330 330 330 331 332 332 332 331 331 330 331 331 331 331 331 332 332 333 333 333 333 333 333 332 333 333 332
320 323 325 326 324 324 325 324 323 319 317 315 317 329 331 331 334 334 336 336 335 334 335 338 341 343 343 343 342 343 342 342 342 342 341 340 340 339 338 337 337 336 335 336 336 334 332 332 332 333 334 333 333 334 334 334 333 332 332 332 332 332 331 330 329 327 327 327 328 328 328 329 329 330 330 331 331 331 331 330 330 331 331 331 331 331 332 332 332 332 332 332 332 332 333 332 331
321 324 325 326 324 324 325 324 325 320 318 319 319 328 332 333 335 336 337 337 336 336 338 339 341 342 343 343 343 342 341 341 341 341 341 340 339 338 337 337 336 336 335 335 335 333 333 333 333 333 333 333 333 333 332 332 330 329 329 329 329 328 327 327 326 325 325 325 326 326 327 328 329 329 329 330 330 330 330 330 330 329 330 330 330 330 331 331 331 331 331 330 330 330 330 328 326
321 322 323 324 324 324 324 323 322 319 322 323 322 329 333 333 337 337 339 338 338 338 339 340 341 342 342 342 342 341 341 340 340 339 340 340 339 337 337 336 335 336 335 335 335 333 333 332 332 332 332 332 331 331 330 327 327 326 327 327 327 326 325 325 325 325 325 325 326 326 326 327 327 327 328 329 329 330 330 329 330 329 329 329 329 329 329 329 329 328 328 327 327 327 327 325 323
320 322 323 322 322 323 322 320 320 321 324 325 328 333 334 334 337 339 340 339 338 339 339 340 340 341 341 340 340 340 340 340 340 339 340 340 339 337 337 337 336 336 335 335 334 333 332 332 331 331 330 330 329 328 326 326 326 326 326 325 325 325 325 325 325 325 326 326 327 327 327 327 327 327 328 328 328 329 329 329 329 329 329 328 327 326 326 325 325 325 325 324 325 325 326 325 322
321 321 323 322 322 323 321 319 320 321 324 328 332 332 333 335 337 339 339 338 338 339 340 340 339 341 340 340 340 339 339 339 339 339 339 338 338 337 336 336 335 336 335 334 333 332 331 330 329 328 328 327 327 326 325 325 325 325 325 325 325 325 326 327 326 327 328 328 328 328 328 327 327 327 327 327 327 328 328 328 328 328 328 327 326 325 325 325 324 322 322 322 324 325 325 324 320
320 322 322 323 322 322 321 321 322 323 324 329 330 331 333 334 336 338 338 338 337 339 340 339 339 340 340 340 339 338 338 339 339 338 339 338 338 337 336 336 335 335 335 333 332 331 329 327 327 326 326 326 326 325 325 325 325 326 326 326 327 327 328 327 328 328 329 329 330 329 329 328 328 328 327 327 327 327 327 328 328 328 328 328 328 327 328 327 327 323 318 318 322 325 324 321 318
321 322 323 323 322 319 317 320 323 324 325 327 330 332 333 333 335 337 337 337 336 338 338 338 339 340 340 339 338 338 338 338 338 338 337 337 337 337 337 336 334 334 334 333 333 332 328 327 326 326 326 326 326 325 325 325 326 328 328 328 328 328 328 328 327 328 328 328 329 329 330 329 330 329 329 328 327 327 328 328 329 329 329 329 329 329 329 329 329 324 318 316 319 321 320 319 320
322 322 322 321 319 317 316 318 321 324 325 326 330 332 333 334 335 336 336 336 335 337 337 337 339 339 339 338 337 338 338 338 338 337 337 337 336 336 336 335 333 333 333 333 333 332 330 328 327 327 326 326 327 327 326 327 327 328 329 328 328 328 328 327 327 328 327 327 329 330 330 330 330 330 330 330 329 329 329 329 329 329 329 329 329 329 329 329 329 327 323 321 320 320 320 322 325
321 322 322 319 317 318 319 319 321 324 325 328 331 332 334 334 335 335 336 337 336 337 337 337 338 338 337 336 337 337 338 338 337 337 337 337 335 335 335 335 334 332 333 333 334 333 332 330 328 327 327 327 328 327 327 327 327 328 328 328 327 327 327 327 327 327 327 327 329 330 330 330 330 330 329 329 329 329 329 329 329 329 329 329 330 329 329 329 329 328 327 327 325 325 325 326 328
321 323 323 321 318 320 320 319 321 322 327 333 335 334 334 334 333 333 334 336 336 336 336 336 336 337 336 337 336 336 337 336 337 336 336 336 336 335 335 335 335 333 333 332 333 334 332 330 329 328 328 328 328 327 327 327 327 327 327 327 327 327 327 328 328 327 327 328 329 329 329 329 329 329 329 328 328 328 328 328 328 327 327 328 328 329 328 328 328 327 328 328 327 327 328 328 329
322 324 322 321 320 321 320 320 320 321 328 333 334 333 335 333 332 334 336 337 337 337 335 336 337 336 337 336 336 337 336 334 336 336 335 335 336 337 336 335 336 335 334 332 331 333 333 331 331 329 328 329 329 328 327 326 326 325 326 326 327 327 327 327 327 327 327 328 329 329 328 329 329 329 329 328 327 327 326 326 326 325 325 325 326 327 327 327 326 326 326 326 327 328 329 330 330
322 322 321 320 318 320 320 320 319 323 328 332 332 333 334 333 335 337 336 337 338 337 335 336 336 336 336 335 336 336 336 334 334 334 334 334 335 337 336 334 335 335 335 334 333 333 332 331 332 331 329 329 329 329 328 327 325 325 325 326 326 326 327 328 327 327 328 329 329 329 328 328 329 329 329 328 327 326 326 326 326 325 325 324 324 325 325 326 326 326 325 326 327 329 329 330 329
319 320 320 318 318 321 323 324 324 326 329 331 332 332 335 335 335 336 335 335 337 337 337 337 337 337 337 337 337 335 334 333 333 333 333 333 334 335 333 333 333 333 334 334 335 335 332 331 332 332 331 328 327 328 329 329 327 328 328 327 327 327 328 329 328 328 330 331 330 329 329 329 329 329 329 329 328 328 327 326 326 326 325 324 324 325 324 325 326 327 326 327 328 329 329 329 329
319 320 320 318 321 324 327 328 327 327 329 331 332 331 335 336 336 335 334 333 336 337 337 338 338 338 337 337 336 335 333 332 332 332 334 334 334 333 333 334 333 332 332 333 334 335 333 331 330 330 330 329 328 328 330 332 331 331 331 330 329 329 331 330 331 330 330 331 330 329 329 329 329 329 329 329 329 329 328 327 327 327 325 325 326 327 326 325 327 326 327 329 329 329 328 328 328
320 321 321 321 325 327 328 329 328 329 330 332 333 333 335 335 336 336 334 334 336 337 337 338 338 338 336 335 336 335 333 332 333 333 334 334 333 333 334 334 334 332 333 333 334 333 333 332 330 328 327 328 328 328 331 334 333 332 332 332 331 330 332 332 332 331 329 329 329 329 328 330 330 330 331 331 330 330 329 328 327 327 326 326 327 328 327 326 327 327 327 328 329 329 328 328 328
321 324 322 325 329 330 329 330 329 330 331 332 333 335 335 334 335 335 334 335 335 335 337 336 337 337 335 335 335 334 334 334 335 334 334 334 332 333 334 334 334 333 334 333 332 331 332 332 331 329 327 327 328 331 333 333 333 332 332 333 332 332 332 332 332 331 330 330 330 330 329 331 332 331 331 331 331 329 329 328 328 327 328 327 327 328 328 327 327 327 327 326 327 328 327 327 327
324 325 324 328 331 330 332 332 331 332 330 330 333 335 336 335 335 334 334 334 334 333 335 336 336 336 335 335 333 333 334 335 334 333 334 334 333 334 334 334 334 334 334 332 330 330 331 331 330 330 330 329 330 332 333 332 331 330 330 330 330 331 330 330 330 330 330 330 330 330 330 331 331 331 329 330 329 328 329 328 328 327 327 326 324 325 326 326 326 326 326 325 326 326 327 327 327
326 327 326 330 331 330 333 333 331 332 331 331 335 335 335 335 334 333 333 333 333 333 335 335 335 335 336 335 334 333 334 334 334 333 333 334 334 334 334 334 334 334 333 331 330 330 330 331 330 330 330 330 331 331 331 330 329 328 328 328 329 329 328 329 328 327 328 329 330 330 330 330 329 329 328 328 328 328 328 326 326 324 323 323 320 321 322 323 324 324 324 324 324 324 324 326 325
328 328 329 332 331 331 333 333 331 332 332 333 336 336 334 334 335 334 333 332 333 333 334 336 334 333 334 333 334 334 334 334 333 333 333 333 334 333 333 334 333 333 333 332 329 329 329 330 330 330 330 330 330 330 329 328 328 327 327 327 327 327 327 327 327 327 326 326 327 329 329 328 328 328 327 327 327 326 325 323 323 321 320 319 317 318 318 318 321 321 321 321 321 321 321 322 323
328 329 332 333 332 331 333 333 331 331 333 334 335 335 334 334 334 335 334 333 333 334 335 335 334 333 332 333 334 334 333 333 333 334 333 333 334 334 333 333 334 333 333 333 330 329 329 329 329 329 330 330 329 328 328 327 327 326 326 325 324 325 325 325 326 326 326 325 325 327 328 327 327 327 326 325 325 323 322 320 319 320 319 316 316 316 313 315 319 318 318 318 318 319 318 318 319
328 331 333 333 332 332 332 333 332 332 333 333 334 334 333 333 333 333 333 333 333 334 335 334 334 334 333 333 333 333 332 332 333 333 333 333 334 334 333 333 333 333 333 332 330 329 329 330 329 330 330 329 328 327 327 326 325 325 324 323 322 323 323 323 324 324 325 325 323 323 325 326 326 327 325 323 323 321 321 320 317 320 318 313 315 315 312 316 317 316 316 316 317 316 316 316 317
331 332 333 333 333 333 333 333 333 333 333 333 333 332 333 333 332 332 333 333 333 334 333 331 333 334 333 332 332 332 332 332 332 333 332 333 334 334 333 333 333 332 332 332 331 331 332 331 329 328 328 328 327 326 325 325 324 324 323 322 322 322 322 322 323 323 323 322 320 317 318 321 323 323 321 322 322 318 319 320 317 318 317 313 317 317 317 318 317 318 318 317 315 315 317 317 316
333 332 334 333 333 333 333 334 333 333 333 333 333 331 332 331 331 332 333 332 332 332 332 331 332 332 332 331 331 331 331 331 332 332 333 333 334 334 334 334 333 331 332 333 332 333 332 330 326 324 325 326 326 325 324 324 322 323 322 321 321 321 322 322 322 322 322 320 318 317 316 318 319 315 316 322 322 318 318 319 317 318 318 317 320 319 318 319 318 319 320 318 316 317 320 317 316
333 333 333 334 334 333 333 334 333 333 332 332 332 331 331 331 331 332 332 333 332 332 333 332 330 330 331 331 331 332 331 332 331 332 333 333 334 334 333 333 332 332 332 332 332 332 330 328 325 324 326 326 325 325 324 323 322 322 322 320 320 321 321 321 321 321 322 321 318 318 318 318 317 312 315 323 321 317 318 319 318 319 319 319 320 318 318 319 318 320 320 319 318 319 319 317 318
332 332 333 332 333 334 333 333 333 332 331 331 332 331 331 331 331 331 332 333 332 332 332 331 329 329 330 331 332 332 331 332 332 332 332 332 333 333 333 332 332 332 332 332 332 330 327 327 326 325 326 325 325 324 323 322 322 322 321 319 319 321 320 320 321 320 321 321 318 318 320 319 316 314 317 321 319 317 319 319 319 319 319 318 318 318 318 319 319 319 319 319 318 318 319 319 320
331 333 335 333 332 333 333 333 332 332 331 331 332 332 331 331 331 332 332 332 331 331 331 330 330 329 330 330 332 333 332 333 333 333 332 332 332 332 332 332 331 331 331 332 331 329 326 326 326 326 325 324 323 323 322 321 321 321 319 318 319 320 320 320 320 319 319 320 318 318 320 319 317 317 319 320 319 318 319 319 319 318 318 318 318 319 318 319 319 318 318 319 317 317 319 320 320
331 334 335 333 334 334 332 333 333 332 332 331 331 332 331 330 331 332 332 332 331 331 331 331 331 330 329 330 331 332 333 333 334 333 332 332 332 332 332 331 331 331 330 330 329 329 328 327 326 326 325 324 323 322 322 320 319 320 319 318 319 319 319 319 319 319 319 319 318 318 320 319 318 318 319 318 319 319 318 319 319 319 318 317 318 318 318 318 318 318 318 318 318 318 318 319 320
331 333 333 332 334 334 332 332 333 332 332 332 331 332 332 331 331 332 332 331 330 330 331 331 331 331 331 331 332 332 332 333 333 333 332 332 331 332 331 331 330 330 329 329 329 328 327 327 326 325 325 324 322 322 321 319 318 319 318 317 318 318 318 318 318 318 318 318 318 318 319 319 318 318 318 318 319 319 318 318 318 318 318 318 318 318 317 317 317 318 318 317 318 318 317 317 319
332 331 330 331 331 332 332 332 332 331 332 332 332 332 332 330 331 332 331 330 330 331 331 331 330 331 332 331 332 332 332 333 332 332 332 331 331 331 330 330 330 329 328 328 328 328 327 326 326 325 324 323 322 321 320 319 319 318 318 317 316 317 318 317 317 317 317 318 318 317 318 318 318 318 318 318 318 319 318 318 317 317 317 317 317 317 317 317 317 317 316 317 317 317 318 317 317
331 330 329 330 329 330 332 332 331 331 331 331 331 332 332 331 331 331 331 331 330 331 331 332 331 332 332 331 332 332 333 332 332 332 331 330 330 330 329 329 328 328 328 328 328 327 326 326 325 325 324 322 320 319 319 319 318 318 318 318 316 316 317 316 316 317 317 317 317 317 317 318 318 318 318 317 318 318 317 317 317 317 317 317 317 317 316 317 317 316 315 317 317 316 317 317 317
330 330 329 329 329 330 332 331 330 330 330 330 331 332 331 330 331 332 331 331 331 331 332 332 332 332 331 331 332 332 332 332 332 331 330 329 328 327 326 326 326 326 326 326 327 327 326 325 324 324 323 321 319 319 319 319 319 317 316 316 316 316 316 316 316 317 316 316 316 317 317 317 317 317 317 317 317 317 316 317 317 317 318 317 318 318 317 317 318 317 314 316 317 316 316 316 317
329 330 329 331 331 329 330 331 330 330 330 330 331 331 331 330 330 332 331 330 331 331 332 332 331 331 330 331 331 331 332 332 332 330 329 328 326 325 325 324 325 325 324 324 325 325 325 325 323 323 323 321 321 320 320 320 319 318 317 317 316 315 315 315 316 317 317 315 315 317 317 317 317 316 316 316 317 316 316 316 316 317 318 318 318 318 318 317 318 316 312 315 316 315 314 317 317
329 331 331 333 333 329 330 331 330 331 330 331 331 331 331 330 329 331 331 330 332 331 331 331 331 331 331 331 332 332 332 331 330 328 328 327 326 325 324 324 324 323 323 323 323 324 324 324 323 322 322 321 322 321 320 319 318 317 317 318 317 316 315 315 316 316 316 315 315 315 315 316 316 316 316 316 316 316 317 318 318 318 317 317 316 317 318 316 316 314 311 313 316 314 314 317 316
330 332 332 332 331 330 331 330 330 331 330 330 331 330 331 330 329 331 331 331 332 331 331 331 330 331 332 332 332 332 331 330 328 327 327 326 325 325 324 323 323 322 322 322 322 323 323 323 323 322 321 321 321 319 319 318 317 317 317 316 317 317 317 316 315 315 316 315 315 316 315 315 315 316 316 316 317 317 318 318 318 317 316 317 316 315 317 316 314 313 309 311 313 313 314 316 314
329 332 333 331 330 331 332 330 329 331 331 330 330 331 331 330 330 331 332 332 332 331 331 332 331 331 332 332 331 331 330 327 327 325 326 326 325 325 324 324 323 322 322 322 322 322 323 322 321 321 320 320 319 318 317 317 317 318 316 314 314 316 316 316 316 316 316 316 316 316 316 316 315 316 316 316 317 317 317 318 318 318 315 317 316 315 315 316 315 309 307 311 311 310 314 316 313
329 331 331 328 327 330 330 329 329 329 331 331 331 331 331 330 330 330 331 331 331 331 331 331 332 331 332 332 331 330 329 326 326 325 325 325 324 324 323 323 323 321 321 321 321 321 322 321 320 320 319 319 319 318 317 317 317 318 317 315 315 315 315 315 315 316 316 315 315 315 315 315 316 316 316 317 317 317 317 317 317 318 317 316 316 315 313 313 314 307 304 312 311 307 312 314 313
328 328 328 326 327 331 331 329 329 329 331 333 333 332 331 330 331 330 330 330 330 330 330 331 332 331 331 332 331 329 327 327 326 326 325 325 324 323 322 322 322 321 321 320 320 320 320 319 319 319 318 318 318 317 317 317 317 317 317 317 316 315 315 315 315 315 316 315 315 315 315 316 316 315 316 317 317 317 317 316 316 317 317 316 316 316 313 310 312 306 301 310 312 307 307 310 312
327 328 329 327 326 331 330 328 330 329 329 331 332 333 332 331 331 331 330 331 331 331 332 332 332 332 332 332 331 330 328 328 327 326 326 326 325 324 322 322 322 321 320 320 320 319 319 319 318 318 318 319 318 318 318 318 318 317 317 317 316 316 316 316 315 315 315 315 316 316 316 316 316 317 317 317 316 317 318 316 314 316 317 317 316 316 313 310 311 308 300 303 310 310 306 306 308
325 327 329 328 328 330 329 329 331 330 329 330 331 333 332 331 331 331 330 331 331 332 333 333 332 332 333 332 331 330 328 328 327 326 326 326 325 324 322 321 322 321 320 320 319 319 318 318 319 318 319 319 319 319 318 318 318 318 319 318 317 316 316 316 316 316 316 315 315 316 316 317 317 317 317 317 315 316 318 317 314 314 316 317 316 315 313 310 310 309 303 299 303 305 303 302 301
323 326 327 328 329 329 329 330 330 329 330 330 331 332 331 330 330 331 330 330 331 331 332 332 332 332 332 332 330 329 328 328 328 327 326 326 325 324 322 321 320 320 320 319 319 319 318 319 319 319 319 319 319 319 318 318 318 317 317 317 317 316 315 316 316 315 316 316 316 316 317 317 316 315 316 317 316 314 316 317 315 314 315 316 316 313 310 309 310 308 304 298 297 298 297 297 296
323 325 327 328 329 331 330 330 329 329 329 328 330 330 329 329 330 330 330 329 329 330 329 330 331 331 331 332 331 329 328 328 328 327 326 326 325 324 322 320 320 320 319 319 319 319 318 319 319 319 319 319 319 318 318 318 317 316 316 316 316 315 315 316 316 316 316 316 316 317 317 317 315 314 315 317 316 313 315 316 315 315 314 314 314 311 307 307 309 307 301 297 295 295 295 295 294
324 325 327 328 331 332 332 333 331 329 328 328 328 328 329 329 328 329 330 328 329 329 328 329 330 329 329 332 331 329 328 328 328 327 327 327 325 324 322 320 320 320 319 319 319 319 319 319 319 319 319 319 319 318 318 318 317 316 316 316 316 316 316 316 316 316 316 317 317 317 318 317 316 314 314 315 315 314 315 315 315 314 314 314 312 309 304 304 309 307 299 296 295 294 295 294 294
325 326 329 329 330 331 332 335 333 330 329 329 329 327 329 329 327 328 329 328 329 329 329 328 329 329 329 330 331 330 329 328 328 328 327 327 326 324 322 320 321 320 319 319 319 320 320 320 320 320 319 319 319 318 318 318 317 317 317 316 316 316 317 316 317 317 317 317 317 317 317 317 317 315 314 315 315 315 315 315 316 314 314 313 310 307 301 301 308 306 297 295 295 294 295 294 293
326 327 328 328 330 331 332 334 333 331 329 327 328 327 326 329 329 328 329 329 329 329 328 328 328 329 329 329 330 330 330 328 329 329 328 327 326 324 322 321 321 320 319 319 319 320 320 321 320 320 319 319 319 319 319 318 318 318 317 317 316 316 317 317 317 317 317 317 318 317 317 317 318 315 314 316 316 315 315 315 316 314 314 313 307 304 300 297 303 302 295 294 294 294 295 295 293
327 329 328 328 328 328 330 330 330 330 326 324 328 328 325 327 328 328 329 329 328 328 328 327 328 329 329 329 330 330 329 329 329 329 329 327 326 325 322 321 321 320 320 320 320 320 321 321 321 321 320 320 319 319 319 319 318 318 317 318 317 317 317 317 317 317 317 317 317 317 317 318 318 315 316 317 316 315 315 316 316 314 313 311 305 301 298 295 298 298 294 294 294 293 294 296 295
329 328 327 327 325 324 327 327 327 326 324 327 330 325 325 328 328 328 330 328 328 329 329 328 329 329 329 329 330 330 329 329 330 330 329 328 326 325 323 322 322 320 320 321 320 321 321 321 321 321 321 321 320 319 319 318 318 318 318 318 318 317 317 317 316 317 316 317 317 317 318 318 317 316 317 317 316 315 315 316 315 314 312 308 302 299 296 295 296 296 294 294 296 294 293 296 296
329 327 326 326 325 325 326 326 327 326 325 330 331 326 327 328 328 329 329 328 330 330 329 329 329 329 328 329 328 329 329 329 330 330 330 328 326 325 324 323 322 321 321 321 321 321 321 322 322 322 322 322 321 321 320 319 319 318 318 318 318 318 318 317 317 317 317 318 317 317 318 317 316 317 318 317 316 316 316 316 315 313 310 305 300 297 296 295 294 294 294 296 299 297 295 295 294
327 328 328 327 326 326 327 327 327 329 330 330 330 329 327 325 327 329 329 329 330 330 329 329 329 330 329 329 329 329 330 329 329 330 330 329 327 325 325 323 322 322 321 321 321 321 322 322 322 323 323 322 322 322 321 321 320 319 319 319 319 318 318 318 318 318 318 318 318 318 319 317 317 318 318 317 316 315 315 315 314 312 308 303 298 296 295 294 294 294 293 294 297 299 299 296 293
326 328 328 326 326 326 326 326 325 327 331 329 327 328 327 324 327 329 327 329 328 329 331 329 329 330 328 329 329 329 330 330 329 330 330 330 328 326 325 324 323 322 322 322 322 322 322 322 323 323 323 323 323 322 322 322 321 320 320 320 320 320 319 318 318 318 317 317 317 318 318 318 319 319 318 317 317 316 315 315 314 311 306 301 297 295 294 294 294 294 293 293 295 296 299 298 295
326 328 326 325 326 327 325 325 325 326 328 327 324 324 325 324 326 327 326 328 329 329 330 329 329 329 328 329 329 329 330 330 330 330 331 330 329 327 326 325 323 323 322 322 322 322 322 322 323 323 323 323 323 323 323 322 322 321 320 320 320 320 320 319 319 319 318 318 318 318 318 318 319 318 318 318 317 317 316 314 313 310 304 299 296 295 294 294 294 293 293 294 295 296 297 298 298
325 325 326 325 325 326 324 323 324 323 323 325 324 322 323 322 324 326 327 330 333 331 328 329 329 328 329 329 329 330 330 330 330 330 331 331 329 328 327 326 324 323 323 323 322 322 323 323 323 323 324 323 323 324 323 322 322 322 321 321 321 320 321 320 319 319 320 319 319 320 320 320 319 318 318 318 317 317 316 313 311 307 302 297 295 295 294 294 293 293 293 293 296 298 297 296 298
326 324 324 323 324 325 323 321 321 320 318 323 325 321 320 321 322 326 327 329 333 330 327 329 329 329 329 328 330 330 329 330 330 330 331 330 330 329 328 327 325 324 323 323 323 322 323 323 323 324 324 324 324 324 323 322 322 322 321 322 321 321 321 321 321 320 321 320 321 322 322 320 319 319 318 317 316 316 314 311 308 304 299 296 295 294 294 294 293 293 293 293 295 298 297 295 297
325 325 326 325 324 324 323 321 321 321 318 320 322 321 320 322 323 325 328 329 329 329 328 329 329 330 330 328 329 329 328 330 331 330 331 331 331 330 328 327 326 325 323 323 323 323 322 323 323 323 324 324 324 324 323 323 323 322 322 322 322 322 322 321 322 322 322 322 321 322 321 320 319 319 317 317 316 315 312 309 306 301 298 296 295 294 293 293 293 293 292 292 294 295 295 295 296
325 326 328 327 325 325 324 322 321 323 321 318 319 320 319 323 326 326 328 328 328 329 329 330 329 330 330 329 329 328 328 329 330 330 330 331 331 330 329 328 327 326 324 323 323 323 323 323 323 323 323 324 324 324 324 323 323 323 322 322 323 323 323 322 322 323 323 322 321 321 320 320 319 318 317 317 315 314 311 307 303 300 297 295 294 294 293 293 293 293 293 293 293 293 294 295 295
324 326 327 326 325 323 321 322 321 321 322 320 319 320 320 323 326 326 326 327 327 329 329 331 330 329 329 330 329 329 328 329 330 329 329 331 331 330 329 328 327 326 324 323 323 324 323 323 324 323 323 324 324 323 324 324 323 322 322 323 323 324 325 324 324 325 324 322 321 321 320 320 319 318 317 316 315 313 310 306 302 299 297 295 294 293 293 293 293 293 294 294 294 294 294 294 294
Wind_Speed
11 9 7 6 7 9 12 11 7 4 5 7 9 10 3 6 4 2 6 8 4 7 8 7 13 16 13 10 13 16 16 10 7 4 3 6 9 11 13 13 13 12 12 12 10 8 8 7 7 7 7 7 7 7 7 7 7 7 6 6 6 6 6 7 7 8 8 8 8 9 8 8 7 7 6 5 5 6 6 6 6 6 6 7 7 7 7 7 7 7 7 7 8 8 8 7 7
9 7 5 5 9 10 11 9 5 5 6 8 8 5 1 2 2 5 12 9 6 8 6 7 13 15 15 13 12 13 15 15 14 12 12 12 13 14 12 12 11 10 11 11 10 9 9 8 7 7 6 6 7 6 7 7 7 7 6 7 6 6 7 7 8 8 8 8 8 8 8 8 7 7 6 6 4 4 5 6 6 6 6 7 7 7 8 8 8 7 7 7 7 7 7 7 7
12 9 9 8 10 11 11 8 6 6 6 8 4 3 1 2 7 11 11 8 7 8 4 6 12 11 10 11 11 10 9 12 14 13 12 10 12 15 13 11 10 10 11 10 9 9 9 8 7 6 6 6 6 6 6 6 6 7 6 7 6 6 7 7 7 7 8 8 8 7 7 7 7 7 7 6 5 4 5 5 6 6 7 7 7 7 8 8 8 7 7 7 7 7 7 7 7
11 10 10 11 11 10 9 6 6 7 6 8 3 7 7 7 11 10 11 11 8 6 4 6 11 11 12 10 9 11 9 10 10 9 9 9 12 15 14 11 10 11 11 10 8 8 8 7 6 6 6 6 5 6 6 6 7 7 7 6 6 6 6 6 7 7 7 7 7 7 7 7 7 7 7 7 6 6 6 6 6 6 7 7 7 7 7 8 8 8 8 8 7 8 8 8 7
10 7 8 12 10 5 5 5 5 7 7 7 3 6 9 10 10 9 12 11 9 7 6 5 8 10 15 13 7 6 6 7 8 10 12 12 13 14 14 12 11 10 9 10 9 8 7 6 6 5 5 5 5 6 5 6 6 7 7 7 7 7 7 7 7 8 7 7 7 7 7 7 7 7 7 7 7 7 7 7 7 6 6 7 7 7 7 7 8 8 8 8 8 8 8 9 9
9 6 10 12 11 8 6 5 6 8 6 8 5 6 10 10 9 10 11 9 10 8 7 8 8 10 12 13 13 9 4 4 6 9 12 12 11 13 14 12 11 11 8 8 9 7 7 6 5 5 5 5 6 6 6 7 7 8 8 8 8 8 8 8 8 8 8 8 8 8 7 7 7 7 7 7 7 7 7 8 8 7 7 6 7 7 8 8 8 8 9 9 9 9 9 10 10
10 9 10 10 9 7 6 6 8 7 3 7 7 11 11 9 8 9 8 5 6 6 7 10 10 12 9 7 12 12 7 6 6 7 10 10 10 12 13 12 11 11 9 8 9 7 6 6 5 5 5 5 6 6 7 8 9 9 9 8 8 8 8 8 8 9 9 9 8 8 7 7 7 6 6 6 6 7 7 8 8 8 8 8 8 8 8 8 9 9 10 10 9 10 9 10 10
12 11 9 7 6 5 6 7 8 9 1 5 9 11 11 10 8 6 5 4 4 4 8 10 9 9 8 6 8 10 10 9 8 8 9 10 11 12 11 11 11 10 10 8 8 8 6 6 5 5 5 5 6 7 9 9 10 10 9 9 9 10 10 10 10 10 10 10 9 9 9 9 8 8 8 7 7 7 7 8 8 8 9 9 9 9 10 9 10 10 10 10 10 10 9 10 10
12 12 9 6 6 5 7 7 8 10 3 9 12 10 11 11 8 6 4 4 3 6 11 11 8 6 7 11 11 9 10 10 9 10 10 10 11 12 11 11 11 10 11 9 8 8 6 6 5 5 6 7 8 9 10 10 11 11 11 11 11 11 11 10 11 11 11 10 10 10 11 10 10 10 10 9 9 8 9 9 9 10 10 10 11 11 11 11 11 10 10 10 10 10 10 11 11
12 12 8 5 6 7 8 8 8 6 1 6 10 12 12 9 6 5 5 4 2 5 10 12 13 9 8 10 10 7 7 8 8 9 9 9 8 10 11 12 12 9 11 11 9 9 8 7 6 7 9 10 11 11 11 11 11 11 11 11 11 11 11 10 11 11 11 11 11 11 11 11 11 12 12 11 11 10 10 10 10 10 11 11 11 11 12 12 11 11 11 11 10 10 11 11 11
9 11 8 6 6 7 7 7 7 3 3 5 10 13 12 7 6 4 3 3 3 8 11 10 11 10 9 10 8 6 6 6 6 8 8 8 8 9 9 11 12 9 10 11 11 10 9 10 9 10 12 13 12 11 11 11 11 11 11 11 11 10 10 10 11 11 11 11 10 10 11 11 11 12 12 12 12 11 11 11 11 11 11 11 11 12 12 12 12 12 12 12 11 11 11 11 12
8 7 7 6 6 7 8 7 7 2 4 6 9 12 11 8 5 3 2 6 11 16 18 10 4 5 7 8 6 6 6 5 6 7 7 8 7 8 8 10 12 11 10 10 11 11 10 11 12 12 13 13 12 11 11 11 11 11 11 11 11 11 11 11 11 11 11 10 10 11 11 11 11 12 12 12 12 12 12 12 12 11 11 11 11 12 12 12 13 12 12 12 12 11 11 12 12
9 6 6 6 7 7 8 6 6 5 5 8 11 11 11 9 3 3 6 15 19 14 13 10 2 4 7 6 5 5 5 5 6 7 8 7 6 7 7 8 11 12 12 10 10 10 12 12 13 13 12 12 12 11 11 11 12 12 12 11 11 11 11 11 11 11 11 11 11 11 11 11 12 12 12 12 12 12 12 12 12 12 12 12 12 12 12 12 12 12 12 12 12 12 11 11 12
12 9 6 6 7 8 8 6 4 3 5 9 11 10 11 9 6 12 16 16 16 8 6 8 3 6 8 6 4 4 5 6 6 6 7 8 5 6 6 6 9 11 12 12 11 11 12 12 12 12 11 11 11 11 11 11 11 12 11 11 11 11 11 11 11 11 11 11 11 11 12 12 12 11 11 12 12 12 12 12 12 12 12 12 12 12 12 12 13 13 13 13 13 12 11 12 13
12 10 6 6 7 8 6 5 7 1 7 9 10 10 13 14 15 20 19 11 10 7 5 5 4 3 4 4 5 6 7 6 6 6 7 8 7 7 6 6 8 9 10 11 13 13 13 12 11 11 11 11 11 10 11 11 11 11 11 10 10 10 10 10 11 11 11 11 11 11 11 11 11 10 10 11 11 12 12 12 12 12 12 12 11 12 12 12 13 14 14 13 13 13 11 12 13
9 9 5 6 6 6 4 3 6 3 7 8 8 8 10 15 18 18 13 9 9 8 6 6 6 5 5 7 9 9 8 7 7 6 7 9 7 6 5 6 7 9 10 10 12 13 14 15 12 11 12 11 10 10 11 11 11 11 11 11 10 10 10 10 10 10 10 11 10 10 9 10 10 9 9 10 10 12 12 12 11 11 11 12 11 12 12 13 14 15 15 13 12 13 13 13 13
8 8 5 7 4 5 8 9 9 4 5 7 7 4 7 10 14 16 12 10 8 8 9 9 9 11 10 10 11 10 8 8 8 8 8 9 6 4 5 6 7 9 9 9 11 11 14 16 12 10 11 11 10 10 12 13 11 10 11 11 10 10 10 10 10 8 8 10 9 9 8 9 10 10 10 10 11 12 13 13 13 11 12 13 12 12 14 14 15 16 15 13 12 13 14 14 13
6 7 5 5 4 5 7 9 9 6 5 8 5 6 8 6 6 9 7 8 8 8 10 10 12 13 11 11 10 9 8 8 8 7 7 6 5 5 5 6 7 8 9 10 10 10 13 14 11 10 9 10 10 10 12 12 10 11 11 12 11 11 10 10 10 8 8 10 10 9 9 9 10 10 10 11 11 12 13 15 15 14 15 15 13 14 15 14 15 16 15 14 12 12 15 16 14
5 6 5 1 6 6 7 9 8 7 5 4 5 11 12 5 3 2 1 3 5 6 8 9 12 12 10 10 10 8 8 8 7 6 6 5 7 7 7 7 8 7 9 9 8 8 10 11 10 11 10 10 11 12 12 10 11 12 12 13 13 12 12 10 10 9 9 11 10 10 10 9 10 11 10 11 11 11 14 16 17 17 18 16 14 14 14 13 15 15 15 15 14 13 15 16 14
4 5 6 3 7 6 9 9 7 8 6 4 6 12 11 5 3 2 1 4 4 3 6 6 9 10 9 9 9 9 7 6 7 8 8 9 10 10 10 9 8 8 9 7 5 6 9 9 9 11 12 11 11 12 12 11 13 13 13 14 13 13 13 11 10 9 10 11 10 11 11 10 11 11 10 11 12 13 14 14 15 14 15 15 12 12 12 11 12 13 13 14 14 13 12 12 10
2 2 5 6 8 5 9 9 8 8 6 6 7 10 7 3 2 2 2 3 3 3 3 5 8 9 9 10 9 8 6 5 7 9 9 9 10 10 11 9 8 9 8 7 6 6 9 10 10 11 12 12 11 12 13 14 14 13 13 13 13 14 14 13 13 12 10 10 10 11 12 12 12 13 14 12 12 13 10 10 12 9 9 11 10 11 11 8 10 10 11 10 10 11 10 10 8
4 3 5 8 9 6 7 8 8 7 5 7 9 8 4 2 2 2 3 2 1 3 3 6 8 7 8 11 9 8 7 6 7 10 10 8 9 10 11 10 9 10 8 8 8 8 10 10 11 12 12 13 13 14 14 14 13 12 12 11 11 12 12 13 14 15 13 10 9 10 11 12 12 12 14 13 10 11 9 7 10 9 7 9 9 11 10 8 10 10 11 9 9 10 8 10 11
3 3 7 7 7 5 5 7 8 7 7 8 8 6 2 1 3 6 5 4 4 5 6 7 7 6 7 8 8 7 7 6 7 11 10 8 10 11 10 11 11 11 9 8 9 9 10 10 11 12 13 15 15 15 13 13 13 12 12 11 11 12 11 11 12 13 13 12 8 8 9 10 10 7 11 13 9 9 11 9 10 10 10 10 10 11 10 10 11 11 12 10 11 10 7 10 12
2 1 4 4 4 6 6 7 8 7 8 8 7 6 3 2 2 5 6 7 6 6 7 6 7 9 8 7 7 8 8 7 8 11 9 7 10 11 10 12 12 11 9 9 9 10 11 11 11 11 13 15 15 13 12 12 12 11 10 11 12 12 12 12 11 9 9 11 8 6 6 7 5 3 8 13 10 9 12 12 11 12 13 12 12 13 13 13 13 12 13 12 12 9 8 11 11
2 2 4 3 4 6 6 7 7 7 8 8 8 6 6 5 5 6 5 6 6 6 8 6 9 12 10 8 8 9 11 9 7 10 9 7 11 11 11 12 11 11 10 10 11 11 11 10 10 11 13 15 14 12 11 11 12 12 11 11 12 12 12 12 9 7 8 9 9 8 6 6 5 2 6 12 12 10 12 13 13 14 15 15 16 17 16 16 15 15 16 14 14 12 12 13 11
3 3 5 3 5 5 4 7 7 7 6 5 7 6 7 8 6 6 6 7 6 7 10 10 10 12 11 11 11 11 12 10 7 9 9 8 10 11 12 11 10 10 10 10 11 11 10 10 10 11 14 15 14 12 12 11 12 13 12 12 13 12 12 11 10 10 10 10 10 10 9 8 7 6 9 13 12 12 13 13 15 15 17 18 18 18 17 17 17 16 17 16 17 16 14 14 13
6 6 6 5 6 5 4 8 7 7 6 4 6 7 7 7 3 3 7 7 7 8 11 11 9 12 13 11 13 12 11 11 9 9 9 8 9 10 11 10 10 11 11 11 11 10 10 10 11 13 15 15 13 12 12 13 13 11 11 13 14 13 12 11 11 11 11 14 12 12 11 10 9 9 13 13 12 13 15 15 16 17 18 18 18 18 18 18 17 17 17 17 18 17 15 15 14
8 6 6 6 7 5 5 7 4 4 4 4 7 8 7 6 2 5 8 8 9 11 11 12 11 14 15 12 14 13 10 10 8 9 9 9 9 10 10 10 11 11 10 10 10 9 9 10 11 13 14 12 11 10 10 12 13 11 11 14 14 12 11 12 12 12 11 14 14 13 13 12 11 11 15 14 13 15 16 16 18 18 18 18 18 18 18 19 18 17 17 17 18 16 16 17 15
9 6 2 3 5 3 4 5 4 3 4 5 7 6 6 5 5 8 9 8 11 13 12 13 12 14 16 15 13 10 9 9 7 8 9 10 10 10 11 10 10 11 10 10 10 10 10 10 12 13 13 11 10 11 10 11 12 13 12 14 14 12 11 12 12 12 12 13 14 14 14 14 13 14 17 15 14 17 17 17 19 19 19 19 19 19 19 21 21 20 19 18 19 17 16 17 16
8 7 2 1 1 2 4 7 7 5 6 6 3 2 5 6 7 8 9 10 12 15 14 13 13 14 15 14 11 9 10 9 7 8 9 10 10 10 10 10 10 10 10 9 9 11 11 10 11 12 12 11 11 11 11 9 11 13 12 13 14 12 11 12 11 12 12 12 13 14 15 15 16 18 18 16 15 17 18 19 19 19 20 21 22 21 21 22 22 23 22 20 20 19 18 16 14
4 2 1 3 1 2 4 7 8 5 7 7 1 1 4 5 7 9 9 11 13 14 13 12 13 13 12 11 10 9 9 8 8 9 9 10 10 9 10 10 10 10 10 10 9 10 10 10 11 11 9 10 12 11 11 11 10 12 12 11 12 12 12 13 13 12 12 13 14 15 16 16 18 19 18 16 16 17 19 21 21 20 21 22 22 22 22 23 23 23 23 22 20 19 20 18 13
2 2 1 3 2 3 5 7 8 5 8 9 2 2 5 6 8 10 10 11 13 14 12 12 13 11 11 11 11 11 9 9 9 9 9 9 9 9 10 10 9 10 9 9 10 9 10 11 11 11 10 11 12 11 12 12 10 13 14 12 12 14 14 14 14 13 12 13 15 16 16 17 19 19 17 17 17 17 19 20 21 21 21 21 21 21 21 23 24 22 20 21 21 19 19 19 15
4 4 2 4 4 3 5 7 7 5 7 9 4 3 4 7 10 12 12 12 14 16 13 12 12 11 11 12 12 12 10 11 10 9 9 9 9 9 9 9 8 10 9 7 9 8 9 11 10 10 10 9 9 11 12 12 11 13 13 12 14 14 15 14 14 15 14 14 15 16 17 18 19 18 18 18 18 19 19 18 19 20 21 20 20 20 20 22 23 21 19 18 21 19 18 19 18
6 4 2 3 5 4 4 6 8 8 6 6 7 5 5 8 11 13 13 13 13 16 15 14 13 13 13 13 13 12 10 11 10 9 10 9 9 9 9 9 8 9 9 8 8 7 8 10 8 9 9 9 11 14 14 13 12 12 12 13 14 14 15 14 13 15 16 15 16 17 18 19 20 20 21 20 19 19 17 17 16 17 21 21 21 21 21 22 21 21 17 16 20 18 16 19 19
3 3 3 2 4 6 6 5 8 10 6 5 7 7 9 10 12 13 13 14 13 14 16 15 15 14 14 14 13 12 11 11 11 11 11 10 10 9 9 9 8 8 8 9 7 7 8 8 8 9 9 9 12 12 12 12 11 11 13 13 13 14 15 14 13 15 16 16 17 19 18 17 18 20 20 18 18 18 18 18 16 16 19 20 21 20 21 22 20 22 17 14 18 16 15 18 18
6 6 3 2 4 5 7 7 7 8 6 5 7 8 10 11 11 13 15 15 13 15 16 15 16 15 14 14 14 14 13 12 12 12 11 10 10 9 9 8 8 9 9 8 7 7 7 7 8 9 8 8 9 8 9 10 9 9 11 13 13 13 14 14 14 16 18 17 18 20 21 20 19 18 17 15 15 17 18 19 17 16 17 18 21 20 20 22 20 23 20 15 17 15 15 18 18
10 10 5 6 6 2 5 7 8 9 5 4 7 10 11 11 11 13 16 16 14 15 16 16 16 16 15 14 14 15 14 13 13 13 12 10 10 9 8 8 8 10 9 8 8 8 7 8 8 7 7 7 7 7 7 10 11 9 9 11 13 12 13 14 14 17 18 16 16 17 18 20 19 18 19 17 15 16 16 17 18 17 17 18 21 21 21 21 21 22 20 17 17 14 16 18 20
9 8 5 7 5 4 7 8 10 11 6 5 8 10 11 11 12 14 16 15 13 15 16 16 16 16 17 16 15 16 14 15 14 13 12 10 10 10 8 8 8 9 9 8 9 9 8 8 8 7 8 7 8 7 5 7 10 10 10 8 8 10 12 12 14 15 14 12 12 14 14 15 16 17 20 18 16 15 15 17 18 19 18 17 20 23 22 20 21 22 20 18 17 14 14 17 20
6 3 3 4 3 4 7 8 10 8 4 5 8 8 10 11 11 13 16 14 14 17 16 15 16 15 18 18 17 16 16 16 15 13 11 10 12 13 10 9 8 9 10 9 8 8 8 7 7 8 8 7 8 9 6 6 6 9 13 10 8 11 13 15 16 14 13 12 13 15 15 13 14 16 17 16 15 16 16 17 18 18 19 18 19 22 23 20 20 23 20 18 18 15 13 14 18
2 1 1 1 3 3 3 6 10 7 3 6 6 5 7 9 9 10 14 15 14 17 16 15 15 15 17 18 17 17 17 17 15 13 11 11 13 13 11 9 9 10 11 10 9 9 8 8 8 9 8 6 6 8 9 9 7 9 12 12 10 12 13 15 15 12 14 15 14 14 13 12 14 15 15 15 14 15 17 17 17 16 18 21 20 20 24 21 19 23 21 17 18 18 15 13 14
2 2 4 2 6 5 4 6 9 8 6 11 11 4 2 6 10 10 11 12 12 15 16 15 15 14 15 17 17 17 17 17 16 14 12 12 13 12 10 10 10 11 11 10 10 10 10 9 10 10 9 8 8 9 10 11 11 9 11 12 11 11 12 11 10 11 13 13 13 13 12 12 13 13 14 13 13 14 15 17 18 18 17 20 20 19 24 23 18 22 23 18 16 17 16 14 13
2 2 3 3 7 7 6 6 6 5 4 10 10 3 2 7 10 10 9 9 10 13 14 15 15 15 15 16 17 17 17 16 16 15 14 14 14 12 10 10 11 11 11 10 10 12 12 11 11 10 10 11 10 10 10 11 10 8 9 11 10 11 14 12 11 12 12 11 12 13 12 11 9 9 11 13 14 16 14 16 19 19 16 15 18 20 22 23 19 20 22 19 16 15 14 14 14
2 2 2 2 4 7 8 5 3 2 3 8 8 2 3 7 9 10 11 11 11 12 13 15 16 15 15 16 18 18 17 16 16 15 15 16 15 13 12 11 12 13 12 12 13 13 13 11 12 11 10 11 11 11 11 11 11 9 10 10 9 11 12 12 11 11 10 10 11 11 10 9 8 8 12 12 14 17 15 14 19 20 16 13 15 19 20 20 19 18 20 20 17 15 14 14 15
1 3 1 1 1 5 6 5 2 2 3 7 8 3 1 5 7 10 13 12 13 13 13 14 17 18 18 17 17 17 17 17 17 15 15 17 16 14 14 13 14 15 14 15 15 14 14 13 12 11 11 13 12 12 11 11 12 12 12 12 11 11 12 12 11 10 9 10 9 9 9 9 9 11 13 11 12 18 18 14 17 19 18 16 15 19 19 17 16 17 18 19 17 16 15 14 14
1 3 0 2 9 11 4 3 2 3 1 2 4 3 1 2 6 9 12 11 12 13 13 13 16 18 19 19 18 17 18 18 17 16 16 18 17 16 16 15 15 16 15 16 15 14 15 13 12 12 12 13 11 11 12 11 11 12 13 13 12 12 13 12 10 10 10 9 8 7 7 8 10 11 12 12 13 17 18 16 17 19 19 18 18 20 20 15 13 16 18 17 17 15 14 14 14
0 0 6 8 11 10 4 2 1 2 3 3 5 6 3 2 3 6 9 9 10 11 12 14 17 19 19 20 19 17 18 18 17 17 17 18 17 18 19 17 17 18 17 17 15 14 15 13 12 12 12 12 11 11 12 11 12 12 12 13 11 10 10 8 8 9 9 7 7 5 5 7 8 9 12 13 14 16 18 19 19 19 18 19 20 20 19 15 11 14 16 15 15 14 13 14 14
3 4 6 4 4 5 3 2 1 1 3 4 7 9 5 3 4 4 6 7 9 10 10 12 17 20 20 21 21 19 18 18 18 18 18 18 17 18 20 19 18 19 18 16 15 15 15 13 13 12 12 12 10 11 11 11 11 11 11 12 10 9 9 8 8 8 7 6 5 4 5 6 6 9 11 13 15 17 18 19 19 18 18 20 21 19 18 15 9 12 15 13 14 14 13 14 14
5 5 2 1 0 2 2 2 2 2 2 2 8 10 5 2 3 5 7 8 8 10 11 12 16 20 21 21 22 21 19 19 19 21 20 20 18 18 20 20 19 19 18 16 16 15 14 13 13 12 12 12 11 11 11 10 10 10 10 9 8 8 9 9 8 7 7 5 4 4 5 4 5 8 9 10 13 17 19 19 18 18 19 21 21 18 17 14 10 11 13 12 13 13 12 13 15
4 4 2 2 1 0 1 1 0 2 2 3 4 8 4 1 1 5 9 9 10 11 12 14 18 20 22 23 22 21 20 20 20 21 22 22 21 20 22 21 20 20 18 17 17 16 14 14 13 12 12 11 11 11 10 9 10 9 9 9 7 6 8 8 6 6 5 3 3 3 2 2 5 7 8 9 12 17 19 19 19 19 20 22 21 17 16 14 11 11 12 12 12 14 14 13 13
0 3 2 2 2 3 2 3 2 2 3 5 2 5 4 2 3 5 8 7 12 15 12 13 19 21 22 23 22 21 20 20 22 23 23 23 22 22 24 23 21 21 19 18 18 15 15 15 13 12 12 11 11 11 10 9 9 10 8 8 8 7 6 7 5 4 5 3 2 2 2 4 5 6 8 11 13 16 19 19 19 19 20 21 20 17 15 14 13 11 12 11 10 13 15 14 13
2 4 2 1 2 1 1 1 1 1 0 1 3 4 4 3 3 7 9 9 15 20 15 9 13 18 20 21 21 22 22 21 22 24 24 23 23 22 23 22 21 21 20 19 18 16 15 15 14 13 12 11 12 12 11 10 8 10 8 4 5 5 5 6 6 4 5 4 2 1 4 7 6 4 7 11 13 14 16 17 18 18 20 20 18 16 15 14 13 12 12 11 10 11 12 13 15
3 4 2 1 3 3 1 3 3 1 2 2 1 2 1 2 5 7 9 9 12 18 20 15 14 18 19 20 20 21 24 24 22 24 24 24 23 22 21 22 21 21 21 19 18 17 16 15 15 15 13 12 13 12 12 12 9 9 11 8 6 6 4 5 5 6 5 4 3 3 3 7 6 5 9 12 12 13 13 14 16 18 20 19 16 14 14 14 13 11 11 12 12 12 10 12 15
2 2 3 3 5 4 2 3 5 1 3 1 2 4 3 3 4 4 6 5 5 9 16 18 18 19 18 19 20 21 24 25 23 24 25 24 24 22 21 22 22 22 22 20 19 18 17 16 15 15 14 12 13 12 11 12 10 9 10 11 11 10 8 7 6 6 6 4 3 3 3 5 6 8 12 13 13 14 13 14 16 18 19 18 15 13 12 12 12 10 11 12 12 12 11 11 12
2 1 4 6 5 3 1 2 3 0 3 2 4 5 4 3 3 3 3 3 1 7 10 15 17 20 20 18 19 21 24 27 25 24 25 25 24 23 22 21 22 22 22 22 20 18 18 17 15 16 15 13 13 13 10 10 10 8 9 9 10 9 8 6 4 3 5 4 3 4 4 5 7 10 11 13 14 14 14 14 16 18 18 16 14 13 12 11 10 11 11 12 11 11 11 11 11
5 3 3 4 2 0 1 2 2 2 2 3 4 4 2 1 3 3 2 2 3 5 5 10 14 18 19 19 20 20 22 27 27 23 25 25 23 23 22 21 21 22 22 22 20 19 18 18 16 16 15 13 13 13 11 11 10 9 8 8 8 8 7 6 4 4 6 4 2 5 7 6 8 10 10 12 12 12 12 13 14 16 17 15 13 12 11 10 11 12 12 11 11 10 10 11 12
7 4 2 3 2 1 2 3 3 4 2 2 5 5 2 1 4 6 5 4 3 2 4 6 10 14 15 17 22 21 21 26 27 24 24 25 24 23 22 21 21 21 21 21 21 20 17 17 17 16 16 15 15 13 12 12 11 9 7 6 6 7 7 6 5 6 5 3 4 8 8 8 9 10 10 10 10 9 10 12 13 14 14 13 12 11 11 10 11 12 12 12 11 10 10 12 11
3 2 0 2 2 3 4 2 1 3 3 2 2 4 2 3 5 5 7 6 3 3 6 4 5 10 13 15 20 21 22 25 25 23 23 25 25 23 22 21 21 21 21 21 22 20 17 17 17 16 17 18 15 14 14 13 12 11 9 8 7 6 6 6 6 6 4 4 7 9 9 11 10 9 9 9 8 9 10 11 13 13 13 12 11 10 10 10 10 11 11 12 12 11 11 12 11
5 3 1 1 2 3 3 1 2 1 2 4 1 4 2 3 3 1 3 7 5 5 6 8 6 6 8 12 17 21 24 25 24 22 23 25 25 23 22 21 21 21 21 21 22 20 19 19 19 17 18 18 16 14 14 14 13 12 11 11 10 8 7 7 7 7 5 5 7 9 10 11 10 8 8 8 8 9 10 12 12 13 12 11 10 10 10 10 10 10 10 11 11 12 12 13 12
Wind_Direction
224 221 226 242 260 276 275 258 252 234 231 255 258 263 278 51 56 307 39 70 80 54 29 38 42 49 76 86 92 74 51 43 37 33 84 100 95 102 117 119 124 133 127 124 124 119 107 96 90 81 71 71 68 65 64 61 59 59 60 55 46 42 34 31 30 25 23 18 17 16 16 16 14 15 19 26 3 348 346 342 346 347 346 344 348 351 347 347 348 353 353 352 357 2 6 6 358
194 198 236 263 261 266 266 242 248 261 239 251 254 263 94 68 47 44 49 58 50 56 32 46 60 65 91 94 89 77 54 52 65 85 97 105 104 103 114 118 123 129 122 116 112 109 104 99 92 84 77 73 68 65 66 62 58 54 49 45 38 33 28 25 25 21 20 16 13 12 10 11 11 13 15 23 19 355 340 338 343 343 343 342 344 345 344 345 348 352 352 351 349 351 354 355 352
177 202 242 256 247 243 263 253 250 271 263 266 271 42 356 300 55 65 60 59 43 47 24 60 59 43 77 77 63 68 67 62 71 94 98 105 105 102 112 115 119 124 121 114 107 105 104 103 94 89 85 78 73 69 66 60 55 50 43 41 38 33 31 29 25 19 17 15 13 10 7 9 9 11 14 14 15 4 350 348 349 348 348 348 349 349 346 344 348 349 348 346 341 342 342 343 345
186 205 228 249 243 229 251 254 245 266 274 276 312 40 21 30 57 66 60 54 43 39 5 67 68 47 64 69 71 74 70 63 69 103 103 107 112 110 116 118 118 117 119 115 107 107 108 104 99 94 84 77 69 62 57 55 52 45 41 37 35 30 30 26 22 20 19 17 13 11 8 11 13 14 17 16 15 12 9 7 4 359 355 356 357 352 348 346 348 347 346 342 339 340 338 337 339
192 199 234 251 251 254 262 258 255 251 259 276 290 46 41 45 55 62 59 52 40 40 9 44 86 76 64 50 54 69 56 65 79 109 112 112 117 115 119 121 115 110 117 118 114 117 115 106 97 88 74 69 59 56 49 48 51 46 42 38 36 33 32 29 28 28 25 23 17 14 13 14 18 19 21 21 19 17 15 13 11 6 360 359 357 353 349 347 346 345 342 338 339 340 339 339 337
190 217 247 244 255 294 289 261 262 246 257 289 298 59 63 54 52 58 57 54 40 37 26 42 89 99 80 59 55 50 41 98 105 111 112 115 119 116 119 119 115 117 122 121 120 121 113 102 89 78 66 59 53 51 49 49 51 49 47 44 42 40 40 38 36 35 30 28 23 21 17 15 17 21 24 23 22 20 17 14 12 9 5 1 357 354 349 345 343 340 336 336 340 338 341 344 342
219 239 232 225 246 266 265 258 264 263 315 331 360 52 60 59 60 62 56 50 33 27 33 53 93 102 93 82 62 49 59 113 117 116 117 119 118 113 117 121 121 126 124 120 118 115 104 91 80 74 56 52 51 49 53 55 55 53 53 50 50 49 49 48 46 45 41 38 35 33 28 25 23 26 28 27 26 22 20 14 11 9 5 3 0 358 353 349 345 341 339 341 342 338 343 349 349
236 252 237 229 246 224 245 256 259 265 239 63 57 56 47 47 52 57 55 41 22 32 36 44 82 92 70 79 83 63 72 92 99 113 120 115 111 107 113 121 126 129 121 118 114 107 98 85 77 68 58 60 60 61 63 61 61 60 60 60 61 59 56 55 54 53 52 48 45 43 39 39 38 37 37 35 35 29 25 20 16 14 12 12 12 10 4 360 354 349 346 348 350 350 353 357 358
230 244 245 248 260 239 245 248 254 261 212 94 83 74 56 44 41 35 35 46 26 46 46 39 57 96 84 81 89 75 75 85 97 113 120 122 118 114 120 121 125 131 124 125 117 104 96 86 80 75 76 76 73 72 70 69 68 66 68 69 66 62 60 58 58 57 55 52 49 47 45 46 45 44 42 40 42 39 36 31 28 27 26 25 22 20 16 12 8 3 358 359 1 2 3 5 10
227 230 241 258 261 262 252 247 252 244 148 81 84 79 65 45 39 28 23 46 21 58 61 58 67 97 107 83 80 66 75 92 104 115 125 134 123 118 129 125 124 136 130 127 120 109 104 95 86 87 86 82 81 79 76 74 71 70 71 70 67 63 62 61 61 59 54 54 52 50 49 51 51 48 46 45 46 45 43 40 36 33 31 29 26 25 23 22 22 20 17 16 15 14 14 15 21
229 221 235 263 253 262 257 258 267 206 114 85 93 86 77 55 41 24 25 37 9 54 51 54 76 96 96 74 68 73 89 101 110 118 125 128 117 117 129 127 128 133 128 123 117 110 106 99 90 89 88 84 81 78 76 72 70 72 73 70 69 65 64 62 60 57 54 54 52 50 51 52 52 50 49 50 49 47 46 43 38 36 34 32 29 28 27 26 27 27 27 27 27 25 23 22 23
239 224 224 252 253 259 262 278 313 342 82 81 92 90 89 82 57 343 9 34 28 44 35 28 90 108 88 77 81 102 107 111 125 125 119 118 119 118 120 126 127 123 120 117 113 111 107 102 97 93 88 85 80 77 75 73 73 71 71 70 67 65 64 61 58 56 54 53 51 51 50 51 52 50 50 50 49 47 45 44 41 37 36 32 29 29 28 28 27 28 29 30 30 28 26 23 21
238 244 237 254 261 266 277 292 333 347 34 68 83 85 88 90 81 339 33 50 41 45 35 24 75 87 84 103 115 122 113 121 129 125 120 114 111 109 112 121 119 118 119 116 113 109 103 99 97 94 88 83 79 78 74 72 73 68 67 65 65 65 62 61 58 56 53 51 51 54 52 49 51 50 50 50 48 46 43 42 39 35 33 29 25 24 24 25 25 26 27 28 28 26 28 29 27
233 246 261 269 269 274 284 283 293 342 53 77 86 88 85 70 42 38 48 59 44 43 52 24 27 87 95 115 134 141 128 130 130 125 119 106 99 96 94 94 99 108 114 118 121 105 94 95 94 92 90 84 77 73 69 67 68 66 64 62 64 62 59 58 55 54 50 47 47 51 50 46 49 50 49 50 46 44 41 38 34 32 29 25 23 21 21 21 20 21 22 24 27 27 31 33 30
251 263 280 271 268 269 252 244 278 350 80 76 84 90 80 51 43 54 53 68 53 46 91 41 25 93 122 147 167 159 140 139 134 129 118 104 95 87 85 82 84 89 95 105 115 109 104 108 103 93 89 86 79 70 65 63 64 65 63 62 62 58 57 54 52 50 42 42 45 45 45 43 44 45 45 48 44 38 34 32 29 28 26 24 23 21 19 17 17 16 17 21 29 30 30 29 25
265 276 284 253 262 290 302 10 337 20 89 74 83 93 83 55 55 69 62 83 79 58 91 78 67 94 112 124 143 151 140 135 131 129 117 97 84 81 83 78 80 81 79 83 95 104 110 113 107 91 90 91 87 76 67 60 58 62 62 59 57 58 54 50 50 46 39 42 48 44 40 43 43 38 37 39 41 36 29 26 26 25 25 24 23 24 23 22 25 24 23 28 30 26 25 25 24
247 257 257 252 276 349 356 18 13 27 98 86 93 82 87 76 72 87 76 79 92 68 76 82 84 96 106 113 126 138 139 140 143 138 115 98 89 95 95 78 79 84 85 84 81 82 91 101 102 92 94 97 94 84 71 63 56 56 58 57 57 61 54 51 50 39 36 39 46 49 37 40 41 35 34 33 36 34 27 25 25 26 26 26 26 26 26 27 30 29 29 31 25 17 21 20 18
240 249 247 270 338 19 9 15 13 13 57 82 87 45 66 83 83 109 90 73 98 90 86 91 91 96 108 116 125 132 136 144 148 138 118 117 118 117 120 99 86 86 86 80 74 71 74 86 96 96 94 94 99 94 77 67 58 50 49 50 47 50 47 49 51 40 34 33 37 40 36 39 35 30 34 34 31 29 27 26 24 23 23 25 28 22 20 24 25 22 21 22 18 13 15 10 4
243 272 262 323 16 25 25 16 18 23 27 62 75 60 69 72 49 110 143 114 125 105 104 108 103 103 113 125 137 136 138 154 159 146 138 140 130 126 122 102 92 90 82 74 76 78 76 82 92 100 98 92 94 86 74 65 60 52 47 49 46 43 39 39 45 42 37 41 38 31 35 41 34 27 31 32 23 27 29 24 22 22 17 13 21 18 8 16 16 10 9 10 11 12 11 3 356
246 288 271 18 27 32 34 16 23 29 9 15 71 76 77 74 44 347 304 157 162 115 117 123 117 115 117 127 135 130 137 163 156 139 133 128 129 131 118 102 100 92 77 75 86 87 86 86 88 98 97 89 85 75 67 64 60 52 47 48 46 43 37 32 37 42 42 45 39 32 37 40 35 29 34 37 28 33 30 22 19 21 19 1 3 14 360 9 13 3 2 1 5 5 2 357 353
302 309 288 3 360 13 34 17 25 23 7 22 64 84 79 54 55 319 292 197 190 146 127 114 125 133 124 118 121 123 126 122 119 123 120 119 125 123 112 102 95 88 81 79 85 92 90 86 89 95 91 84 80 71 65 66 63 56 55 53 46 42 37 30 27 29 33 43 44 40 41 37 34 32 31 32 36 37 28 35 23 11 28 358 349 7 354 7 16 3 359 357 3 359 353 351 348
315 325 337 8 349 1 30 20 26 15 25 42 55 83 91 48 58 21 346 302 349 112 108 100 122 141 127 116 117 122 126 117 122 127 119 120 119 111 112 110 97 89 85 77 71 81 90 88 89 89 86 80 74 71 68 68 66 58 57 60 58 52 46 40 31 22 12 16 42 51 52 41 33 36 33 25 34 32 16 42 27 1 19 356 352 3 351 9 16 5 358 356 5 354 351 355 345
294 354 9 7 351 13 31 32 32 19 40 50 57 86 112 80 65 38 39 62 59 83 104 102 103 111 108 105 110 114 126 131 127 121 116 127 120 112 116 112 105 98 91 84 74 80 88 86 84 81 81 78 72 69 68 66 66 62 56 52 56 54 49 50 47 34 10 359 20 52 65 56 38 47 47 27 21 26 15 21 22 11 7 358 5 3 359 16 14 8 1 359 1 347 350 355 343
270 28 37 6 14 42 42 49 51 45 53 58 68 80 64 45 83 54 65 87 82 103 115 108 102 111 111 97 107 117 122 122 117 113 115 130 119 113 114 105 103 102 96 89 83 84 82 78 78 80 82 81 77 74 70 66 62 62 58 50 49 49 46 47 52 47 19 4 7 35 64 66 46 55 55 29 9 19 21 14 19 18 6 8 19 14 18 22 14 13 7 1 352 346 360 349 339
19 68 85 51 60 60 55 67 64 61 61 66 74 69 58 70 101 91 96 103 107 131 124 120 115 115 124 122 124 126 119 112 106 111 118 124 113 109 107 101 103 103 95 87 86 85 81 80 81 85 87 83 81 77 75 74 65 52 43 44 47 54 51 41 42 34 6 1 5 19 37 47 34 16 53 32 8 15 25 18 22 23 16 26 30 24 28 24 19 21 13 7 0 5 10 349 338
74 92 98 99 93 81 77 81 71 69 69 80 89 82 83 101 114 96 105 115 122 131 114 117 120 117 126 125 123 126 123 125 129 124 123 114 105 104 100 99 102 99 96 93 90 88 84 83 82 85 85 81 76 69 67 63 58 50 38 41 44 54 60 44 40 31 360 355 12 26 35 43 32 33 60 40 11 18 32 28 31 32 28 36 35 23 28 27 23 27 19 14 18 20 8 354 357
109 118 126 129 108 98 93 87 82 82 76 84 94 92 107 128 144 95 112 118 122 123 107 111 122 124 127 122 121 126 125 128 136 131 123 110 102 102 100 97 92 89 95 98 95 96 94 87 81 81 79 76 71 65 68 56 45 44 36 41 44 47 56 47 46 42 9 358 11 31 39 45 39 49 67 46 16 28 41 39 39 40 32 37 40 25 26 29 25 30 27 22 28 23 5 5 13
117 133 152 130 111 109 102 100 109 100 81 96 105 103 111 124 100 89 116 125 123 117 106 114 122 122 127 128 124 125 125 126 132 133 125 114 105 98 94 90 87 87 93 98 97 98 97 90 83 84 82 81 81 74 77 66 49 43 36 43 49 44 51 52 47 46 26 5 11 37 43 42 47 61 70 52 30 41 49 45 42 44 36 35 42 31 25 29 31 36 35 31 34 26 14 13 14
117 100 109 111 106 121 128 133 144 125 120 132 132 118 89 89 89 94 112 122 122 118 115 125 128 124 129 132 128 128 135 137 135 126 115 108 100 94 90 86 90 93 92 94 94 91 84 81 78 76 73 74 83 73 71 75 56 40 37 51 55 43 48 58 54 50 41 11 13 44 49 43 55 68 69 58 45 48 49 48 43 42 40 37 40 36 29 30 33 35 36 38 36 28 21 19 14
107 87 73 195 123 163 159 147 150 141 138 149 174 140 80 85 106 111 121 127 129 128 127 134 135 131 132 133 135 140 142 140 128 110 105 105 97 94 92 87 93 93 91 89 90 91 85 83 82 76 72 69 71 65 62 70 57 40 38 56 62 48 45 54 57 61 54 20 15 46 53 48 60 69 68 61 54 51 48 49 47 43 41 37 36 35 31 32 33 32 30 32 34 25 17 20 18
82 48 195 201 170 165 170 158 162 157 151 164 249 49 115 118 125 127 134 137 136 132 130 141 147 141 138 141 144 142 139 132 119 107 105 106 99 96 91 87 90 89 90 88 83 88 89 91 89 82 83 73 62 52 46 51 58 51 45 57 66 58 50 50 52 59 59 36 29 49 55 56 63 66 68 65 58 55 49 48 47 46 44 39 34 31 29 30 32 32 27 23 25 18 10 11 17
111 286 178 187 222 175 180 181 180 163 151 158 118 85 130 133 138 141 144 146 140 134 135 146 152 149 145 149 147 142 140 125 116 112 109 105 100 95 89 87 89 90 89 86 86 85 82 86 84 80 81 74 65 50 39 48 58 50 47 52 58 61 57 53 54 53 57 52 46 53 57 63 67 64 65 65 60 57 51 46 42 40 41 39 34 27 25 26 25 28 28 22 16 11 10 6 4
172 224 184 184 219 196 185 189 182 156 145 153 151 139 137 137 145 149 154 159 150 143 146 153 156 156 154 153 150 148 143 127 122 121 115 106 100 95 92 90 90 98 96 91 96 91 83 85 86 84 78 68 67 59 49 59 67 58 61 51 41 60 65 56 58 54 54 58 57 59 59 63 68 69 65 60 58 57 54 49 45 40 36 35 33 26 24 26 22 20 23 24 16 12 15 8 355
182 208 216 192 213 202 178 181 169 160 158 167 171 156 139 144 148 153 164 173 167 151 151 160 162 161 158 155 154 153 147 136 134 129 119 109 105 99 94 92 87 95 98 96 96 88 90 91 88 84 71 60 63 63 58 65 71 61 64 57 42 58 66 59 63 62 58 58 62 65 63 60 63 65 63 59 55 52 50 48 48 44 37 34 31 28 26 26 21 12 11 19 16 9 13 11 352
154 161 190 193 216 207 184 184 169 164 170 171 161 139 134 146 152 160 171 181 177 157 154 161 161 161 159 157 155 151 148 145 140 133 125 114 107 98 92 91 86 89 93 98 100 94 97 93 88 81 70 64 59 54 54 63 69 52 50 60 57 58 64 63 63 68 67 63 66 67 65 64 61 58 56 59 57 50 46 43 42 41 37 35 30 28 27 24 16 6 6 18 12 9 22 9 346
93 93 123 187 211 201 179 183 164 152 163 165 150 135 141 151 157 165 172 182 183 162 158 160 158 161 164 159 156 154 151 148 145 139 131 117 109 102 95 91 89 95 96 101 106 100 96 87 86 87 80 71 60 60 69 69 72 63 57 64 65 59 60 63 62 72 78 72 65 59 58 61 59 55 50 53 57 52 47 42 37 31 33 36 29 30 30 20 12 5 8 20 12 17 32 4 341
117 103 133 192 200 177 166 173 145 137 154 166 151 142 147 155 161 168 170 179 185 170 164 163 163 166 168 163 157 157 153 149 151 145 135 125 116 109 98 94 93 97 99 106 110 103 104 99 92 89 82 77 74 87 98 85 73 69 74 71 69 70 64 63 65 70 73 69 57 47 47 50 51 50 46 46 49 48 47 42 33 22 30 38 28 33 35 17 9 6 7 18 15 19 29 7 351
110 116 167 180 169 142 165 165 139 145 160 161 158 148 149 158 163 168 170 178 186 177 170 168 169 164 162 164 160 158 155 155 155 143 137 136 129 120 103 96 98 100 102 112 117 111 112 108 98 87 79 77 79 85 104 104 86 78 85 75 69 84 79 72 74 71 67 70 66 59 62 60 56 52 45 42 39 38 44 47 39 21 23 33 26 31 33 17 5 4 11 18 15 21 29 13 3
82 116 179 171 144 127 153 155 141 151 171 158 164 155 147 156 159 164 174 182 184 179 176 174 173 164 158 161 160 160 160 158 153 141 139 142 133 122 108 104 108 110 111 114 117 114 110 106 98 92 88 91 98 100 102 105 102 95 92 81 72 85 81 75 80 78 67 73 77 73 76 72 62 55 48 42 34 34 38 45 46 25 13 16 19 24 24 18 4 3 20 21 12 21 29 21 11
63 90 243 184 115 127 159 157 147 152 155 132 145 150 140 151 155 169 184 183 179 178 177 176 175 170 164 160 160 163 160 155 151 145 145 143 132 118 110 116 117 117 119 114 115 117 114 110 106 104 99 96 105 102 88 80 88 100 98 92 83 78 74 75 80 78 68 69 71 70 72 69 60 54 50 45 39 38 30 32 45 35 13 6 10 14 12 16 8 3 21 27 12 14 19 24 17
252 185 232 190 125 160 167 149 153 161 159 137 140 145 131 168 169 175 187 179 175 178 176 177 178 175 169 163 163 165 160 158 159 155 151 143 129 116 116 128 124 123 123 116 120 124 120 114 111 113 110 99 93 91 86 84 86 91 97 97 93 84 83 86 85 79 75 74 73 70 69 66 61 55 49 40 42 50 31 18 32 37 23 7 3 6 6 11 11 4 14 27 20 10 9 18 14
284 200 226 156 135 147 123 128 158 164 169 152 153 156 159 187 185 172 173 176 178 182 180 182 181 174 172 170 167 168 165 165 166 163 157 142 129 123 126 133 129 127 127 125 128 125 118 116 115 113 109 103 98 93 86 86 87 93 103 100 101 103 97 90 88 87 80 75 78 76 69 61 56 61 58 39 35 52 42 12 19 31 31 14 0 2 3 6 9 5 7 17 21 10 6 12 11
288 273 351 75 135 133 125 130 154 171 180 165 170 200 154 173 191 177 170 177 180 185 188 187 184 177 177 180 176 173 173 172 170 171 161 141 134 137 136 135 133 129 130 128 124 122 120 120 117 111 104 100 100 98 90 91 94 100 107 99 96 109 106 94 94 97 85 76 79 76 70 61 51 63 64 46 28 37 41 17 12 19 26 20 4 3 4 2 4 4 2 8 13 11 10 13 11
315 257 317 289 68 95 129 118 55 262 181 160 168 185 162 164 184 179 173 178 180 185 190 189 188 183 180 181 183 180 175 174 174 174 163 143 141 147 141 139 137 132 131 127 123 127 127 122 118 112 102 99 103 103 101 107 103 97 107 108 96 96 103 102 101 99 95 95 91 73 60 48 43 54 56 46 26 26 31 22 10 11 17 17 5 3 5 3 360 357 357 3 10 14 15 17 18
292 244 269 26 46 50 57 97 51 281 214 168 166 161 194 163 169 173 177 184 182 185 189 191 193 191 183 177 185 188 175 175 179 175 163 149 150 156 147 142 140 136 135 132 130 130 128 124 123 116 105 106 114 111 105 110 105 95 104 111 102 96 96 99 99 93 91 92 86 74 65 46 31 38 41 36 27 21 20 17 10 9 11 11 4 360 3 9 2 350 353 3 9 16 20 21 25
141 81 57 48 58 66 58 97 117 285 261 226 191 188 201 172 170 176 182 190 188 188 190 191 193 197 191 177 182 189 176 176 180 170 161 153 157 161 150 144 145 143 139 136 136 134 132 130 126 120 116 119 123 118 111 109 108 103 107 110 108 104 99 101 105 94 87 85 74 60 62 50 22 16 23 22 19 15 13 10 7 8 9 7 3 359 4 16 8 349 354 5 10 17 24 26 31
67 44 62 61 81 106 104 126 146 292 257 204 190 200 197 170 190 191 195 205 195 188 189 190 189 193 193 178 176 184 180 177 174 164 159 156 158 157 148 148 151 148 144 145 145 140 139 137 131 130 129 131 127 122 121 117 116 117 117 116 111 109 112 112 111 102 93 95 84 44 40 42 11 7 17 13 6 3 7 7 3 6 6 3 3 1 6 17 11 355 1 10 15 22 26 27 33
79 55 47 265 38 112 134 157 182 212 242 200 183 180 161 147 179 191 213 228 215 193 187 188 186 188 188 177 174 180 183 180 170 164 163 161 160 156 151 154 156 152 151 154 153 148 148 145 142 142 138 140 136 129 131 126 126 128 125 125 112 109 122 113 98 104 102 93 81 47 38 31 350 358 16 13 357 353 360 3 2 5 4 2 4 3 7 16 12 4 8 15 21 26 33 31 30
73 77 358 314 16 341 175 100 281 245 20 29 170 151 122 328 257 195 208 225 226 205 188 185 185 186 183 176 177 181 182 179 170 166 165 164 164 162 159 158 159 159 158 159 160 157 155 155 155 154 149 152 146 139 141 133 131 133 128 135 131 118 130 117 95 110 117 108 100 70 32 353 332 344 4 4 351 349 354 359 2 5 2 0 3 5 10 17 18 13 15 21 23 26 37 36 29
50 103 20 340 2 354 8 43 357 293 46 39 18 87 102 264 273 217 211 211 204 192 188 189 181 180 177 174 178 179 178 179 173 168 168 168 169 168 166 162 161 164 163 164 167 164 160 163 167 165 162 164 156 153 156 146 148 151 134 127 133 142 158 147 130 124 120 134 132 54 328 311 329 344 352 351 347 348 352 357 2 2 359 360 3 6 10 17 22 22 23 28 22 21 32 34 33
117 109 114 253 270 315 360 345 249 237 82 326 328 63 113 200 194 198 206 200 182 170 174 186 171 170 169 170 176 171 171 179 175 170 171 171 172 171 168 166 165 167 167 167 169 169 168 170 174 173 172 172 170 170 166 163 169 164 151 129 124 145 180 169 157 157 148 158 156 52 317 307 324 343 340 343 347 349 353 356 359 359 358 359 4 7 11 16 21 23 25 35 36 25 24 24 31
86 113 149 172 216 198 158 274 275 98 83 276 270 93 131 188 165 192 205 189 165 156 160 166 170 171 165 169 175 164 165 176 174 169 170 171 172 172 170 169 169 170 171 171 172 174 175 175 177 179 181 179 182 183 171 172 186 174 164 166 159 162 184 179 173 191 199 196 191 191 278 299 312 332 336 342 347 351 355 354 354 356 357 360 5 10 13 15 19 23 26 33 39 36 26 17 23
110 150 202 218 239 234 174 268 286 42 95 156 156 138 181 172 148 222 227 164 137 158 158 159 168 168 161 172 175 161 164 174 172 167 168 169 172 172 171 171 172 174 174 175 177 179 179 180 179 182 187 183 188 194 180 178 190 190 177 173 179 184 187 200 205 207 221 241 242 238 277 306 319 333 338 342 345 350 355 353 350 354 358 1 7 13 16 16 16 25 33 35 34 32 27 20 18
148 217 224 223 240 275 325 274 271 230 111 144 158 148 168 167 139 214 243 93 193 219 168 150 159 161 164 175 173 165 166 169 168 166 167 170 173 173 172 174 175 177 178 177 179 180 181 183 181 186 190 184 190 200 192 188 194 200 200 190 196 201 196 218 237 216 229 248 275 283 285 300 318 330 334 339 345 351 353 351 351 354 358 3 7 12 17 19 21 28 36 39 37 27 19 22 23
207 213 209 240 237 150 295 280 285 318 52 107 135 118 107 168 131 137 153 142 222 227 158 147 155 160 169 170 167 173 168 160 162 166 167 170 173 175 175 177 177 178 180 180 179 180 183 186 184 190 196 188 193 203 197 197 202 206 212 205 207 208 199 219 243 229 233 241 249 261 269 289 309 323 333 341 347 351 351 350 352 352 355 1 7 12 15 20 27 34 38 40 40 31 17 23 30
240 205 190 302 337 30 308 291 314 327 351 112 134 121 94 174 123 124 156 187 214 180 144 161 154 156 169 167 167 175 167 156 160 165 168 170 173 176 176 178 178 178 181 182 181 182 186 190 187 191 199 195 195 204 203 201 204 209 224 228 218 210 192 195 225 232 229 222 231 247 271 300 308 319 335 342 345 350 349 348 350 351 352 358 6 14 17 22 28 31 36 39 40 35 24 26 29
249 210 287 324 335 341 319 275 320 350 331 323 121 125 93 89 111 138 162 164 207 191 148 141 153 157 165 169 170 172 165 163 167 168 169 170 172 175 177 180 180 177 182 183 181 186 190 188 189 193 201 204 203 203 203 205 204 203 215 223 219 217 198 187 213 236 219 200 233 255 282 301 305 318 333 337 344 348 345 345 348 350 352 356 6 16 19 26 31 28 29 32 33 31 28 28 25
192 209 174 180 218 301 317 310 345 5 254 289 45 117 85 56 52 324 163 146 182 215 141 133 165 163 160 171 171 168 165 165 169 170 170 170 170 173 178 183 182 176 181 185 182 187 190 186 189 194 201 209 210 202 201 208 206 200 206 217 218 218 213 201 208 228 231 239 263 277 287 293 302 319 327 334 345 344 342 346 349 351 351 354 5 17 21 26 31 30 30 28 24 24 23 23 21